Weather History for Ukiah, CA

Change the Weather History Date:

Tuesday, April 8, 2014

  Actual Average Record
Temperature  
Mean Temperature 66 °F 54 °F  
Max Temperature 84 °F 66 °F 95 °F (1989)
Min Temperature 47 °F 41 °F 30 °F (1953)
Degree Days  
Heating Degree Days 1 12  
Month to date heating degree days 97  
Since 1 July heating degree days 2744  
Cooling Degree Days 0 0  
Month to date cooling degree days 0  
Year to date cooling degree days 0  
Growing Degree Days 14 (Base 50)    
Moisture  
Dew Point 46 °F    
Average Humidity 59    
Maximum Humidity 93    
Minimum Humidity 24    
Precipitation  
Precipitation 0.00 in 0.08 in 1.06 in (2005)
Month to date precipitation 1.08 0.76  
Year to date precipitation 16.34 19.83  
Since 1 July precipitation 18.26 33.80  
Snow  
Snow 0.00 in - - ()
Month to date snowfall 0.0  
Since 1 July snowfall 0.0  
Snow Depth -    
Sea Level Pressure  
Sea Level Pressure 30.07 in    
Wind  
Wind Speed 1 mph (SE)    
Max Wind Speed 9 mph    
Max Gust Speed 13 mph    
Visibility 10 miles    
Events      
T = Trace of Precipitation, MM = Missing Value Source: NWS Daily Summary

Daily Weather History Graph

Daily Weather History Graph

Search for Another Location

Airport:

Trip Planner

Search our weather history database for the weather conditions in past years. The results will help you decide how hot, cold, wet, or windy it might be!

Date:

Astronomy

Apr. 08, 2014 Rise Set
Actual Time 6:46 AM PDT 7:43 PM PDT
Civil Twilight 6:19 AM PDT 8:10 PM PDT
Nautical Twilight 5:46 AM PDT 8:43 PM PDT
Astronomical Twilight 5:13 AM PDT 9:16 PM PDT
Moon 1:44 PM PDT (4/8) 3:00 AM PDT (4/8)
Length of Visible Light 13h 51m
Length of Day
12h 57m
Waxing Gibbous, 63% of the Moon is Illuminated
Apr 8
Waxing Gibbous
Apr 15
Full
Apr 22
Last Quarter
Apr 28
New
May 6
First Quarter

Hourly Weather History & Observations

Time (PDT) Temp. Dew Point Humidity Pressure Visibility Wind Dir Wind Speed Gust Speed Precip Events Conditions
12:56 AM 54.0 °F 46.0 °F 75% 30.10 in 10.0 mi Calm Calm - N/A   Clear
1:56 AM 53.1 °F 46.9 °F 80% 30.09 in 10.0 mi Calm Calm - N/A   Clear
2:56 AM 53.1 °F 45.0 °F 74% 30.09 in 10.0 mi Calm Calm - N/A   Clear
3:56 AM 50.0 °F 46.0 °F 86% 30.09 in 10.0 mi Calm Calm - N/A   Clear
4:56 AM 50.0 °F 45.0 °F 83% 30.09 in 10.0 mi Calm Calm - N/A   Clear
5:56 AM 48.9 °F 44.1 °F 83% 30.09 in 10.0 mi Calm Calm - N/A   Clear
6:56 AM 46.9 °F 44.1 °F 90% 30.11 in 10.0 mi Calm Calm - N/A   Clear
7:56 AM 50.0 °F 46.0 °F 86% 30.12 in 10.0 mi Calm Calm - N/A   Clear
8:56 AM 55.0 °F 46.9 °F 74% 30.12 in 10.0 mi Calm Calm - N/A   Clear
9:56 AM 61.0 °F 46.9 °F 60% 30.12 in 10.0 mi Calm Calm - N/A   Clear
10:56 AM 68.0 °F 48.9 °F 50% 30.12 in 10.0 mi Calm Calm - N/A   Clear
11:56 AM 72.0 °F 48.9 °F 44% 30.09 in 10.0 mi SE 3.5 mph - 0.00 in   Clear
12:56 PM 77.0 °F 50.0 °F 39% 30.07 in 10.0 mi ESE 4.6 mph - N/A   Clear
1:56 PM 81.0 °F 46.0 °F 29% 30.06 in 10.0 mi SE 5.8 mph - N/A   Clear
2:56 PM 82.9 °F 45.0 °F 26% 30.03 in 10.0 mi North - - N/A   Clear
3:56 PM 82.9 °F 42.1 °F 24% 30.01 in 10.0 mi SE 5.8 mph - N/A   Clear
4:56 PM 82.9 °F 45.0 °F 26% 29.99 in 10.0 mi Variable 5.8 mph - N/A   Clear
5:56 PM 79.0 °F 48.9 °F 35% 30.00 in 10.0 mi South 5.8 mph - N/A   Clear
6:56 PM 75.0 °F 46.9 °F 37% 30.01 in 10.0 mi NNE 5.8 mph - N/A   Clear
7:56 PM 71.1 °F 46.9 °F 42% 30.02 in 10.0 mi NW 3.5 mph - N/A   Clear
8:56 PM 66.0 °F 48.9 °F 54% 30.04 in 10.0 mi Calm Calm - N/A   Clear
9:56 PM 62.1 °F 45.0 °F 53% 30.04 in 10.0 mi Calm Calm - N/A   Clear
10:56 PM 60.1 °F 43.0 °F 53% 30.04 in 10.0 mi Calm Calm - N/A   Clear
11:56 PM 57.0 °F 45.0 °F 64% 30.05 in 10.0 mi Calm Calm - N/A   Clear